Location: Katowice
(50.2611°N, 19.0242°E)
Time: 20:39:06
(UTC+02:00)

ISS - Pass Details

Date: 27 March 2019
Orbit: 408 x 410 km, 51.6° (Epoch: 22 April)

Event Time Altitude Azimuth Distance (km) Brightness Sun altitude
Rises 20:09:55 0° 271° (W) 2,336 1.1 -19.3°
Reaches altitude 10° 20:12:01 10° 274° (W) 1,475 -0.1 -19.6°
Maximum altitude 20:15:18 67° 357° (N) 448 -3.6 -20.1°
Enters shadow 20:15:27 65° 18° (NNE) 453 -3.7 -20.1°
